Back to catalog

STARLINK-11577

AliveCommunicationsVLEO
NORAD 63013·PAYLOAD·🇺🇸 United States

Launched Feb 15, 2025 from Cape Canaveral Space Force Station

Loading…

Next Passes (next 24 hours)

TLE

FreshSource: CelesTrak SupGP

Epoch: Sep 14, 2026, 22:43 UTC

1 63013C 25032J   26257.94701389 -.00042775  00000+0 -33229-3 0  2573
2 63013  43.0001 134.6427 0001531 259.6714 262.7314 15.70855307    11

Track STARLINK-11577 in real time with AllMySat

Download on the App Store